Wind_Speed
63 68 69 68 68 66 64 64 63 62 63 64 65 65 65 66 66 64 62 62 64 66 66 64 62 60 58 56 54 53 53 52 51 49 47 46 45 43 42 41 40 39
57 62 66 67 68 69 69 69 69 69 69 69 69 70 70 68 66 64 63 62 63 65 64 62 59 56 53 51 51 50 50 50 49 47 46 45 44 42 41 40 40 39
56 56 60 63 64 65 66 67 66 66 67 68 69 69 69 66 64 64 64 64 64 63 61 57 54 51 49 48 47 47 47 47 47 46 45 44 44 42 41 41 40 40
59 56 56 59 62 64 66 67 68 67 66 67 68 69 69 68 68 67 66 66 64 61 57 53 50 48 46 44 43 42 43 44 45 45 45 45 44 43 41 40 40 40
59 58 56 55 57 62 65 68 70 70 69 68 67 67 68 69 69 68 67 65 61 57 52 49 47 45 43 41 40 39 39 39 41 43 44 44 43 42 40 39 39 39
53 54 55 54 53 54 57 60 63 65 66 65 64 64 64 65 65 64 62 58 54 50 47 46 44 43 42 41 39 38 37 37 38 40 41 42 41 40 39 38 38 38
43 46 48 50 50 49 49 52 56 59 61 62 62 61 60 60 59 58 56 52 49 47 46 45 45 44 42 41 40 40 39 38 38 38 38 39 39 38 38 38 38 37
37 40 42 45 47 47 46 48 52 55 56 58 58 57 57 56 56 55 52 50 48 47 46 46 45 43 42 41 41 40 40 39 37 36 37 38 38 38 38 38 38 37
36 38 38 37 39 42 45 46 49 53 53 55 56 57 57 56 55 54 53 52 50 49 48 47 45 43 42 41 40 39 38 37 36 35 36 38 39 38 38 38 38 37
33 34 35 34 32 35 39 42 46 51 53 55 56 56 56 55 55 54 54 53 52 51 49 47 45 43 41 40 39 38 36 35 35 34 35 37 37 37 38 38 37 36
33 34 38 39 35 31 33 36 40 44 46 49 51 51 51 51 51 52 52 52 50 49 47 46 44 42 40 38 37 36 34 33 33 32 32 32 33 33 34 35 34 33
38 37 41 42 39 35 34 36 37 38 39 41 43 44 46 47 48 47 47 46 45 44 43 43 41 40 38 36 35 34 33 32 32 31 31 31 31 31 32 32 32 31
40 40 41 42 42 40 40 39 39 39 37 36 35 36 37 39 42 42 42 41 40 39 39 38 37 35 34 34 34 34 34 33 32 31 31 31 31 31 31 32 32 32
42 42 43 43 44 44 45 44 43 41 39 37 35 33 31 30 32 34 35 35 35 35 35 34 33 33 33 34 35 35 35 33 32 30 30 30 30 30 31 33 34 34
44 44 43 43 44 44 45 44 43 43 42 40 38 35 32 30 29 29 30 32 33 34 34 34 34 35 36 36 36 35 34 32 32 32 31 31 31 31 32 33 34 35
46 44 44 45 45 44 43 43 42 42 42 41 38 36 33 32 31 30 32 34 36 36 36 36 36 38 38 37 36 36 35 35 35 34 33 33 33 33 34 34 35 36
48 45 45 46 46 47 45 44 43 42 42 41 39 37 36 35 35 34 35 37 39 40 39 38 39 40 39 38 38 39 39 38 37 36 35 36 36 37 37 38 39 40
50 49 47 46 48 49 49 47 46 45 44 43 42 41 41 40 40 39 39 40 40 41 42 41 42 42 42 42 42 42 41 39 37 36 36 37 38 39 40 41 43 44
48 49 49 48 49 51 51 51 50 48 47 46 46 45 45 44 43 43 43 42 42 43 44 44 44 44 45 45 43 42 42 40 38 38 39 40 42 43 44 45 46 45
46 47 47 47 48 50 52 53 52 51 51 50 49 48 48 47 46 46 46 46 45 45 46 46 46 46 46 46 45 45 43 42 42 43 43 45 46 48 49 49 48 47
44 44 45 46 48 50 51 52 51 52 52 52 51 51 50 49 49 49 49 49 49 49 49 50 50 50 49 48 48 47 46 46 47 48 48 48 50 51 51 50 49 48
46 45 45 46 48 50 51 51 51 52 52 52 53 53 52 52 52 51 51 51 52 52 52 52 52 51 50 50 49 49 48 48 50 51 51 51 52 53 53 51 49 48
51 49 49 49 51 53 54 54 55 54 53 53 54 54 52 52 52 51 51 52 52 53 53 52 52 52 52 52 52 52 53 53 54 54 54 54 54 54 54 53 51 51
54 53 52 53 54 55 56 57 57 57 56 56 56 54 52 51 51 50 50 51 52 52 52 52 53 53 54 54 55 55 55 55 55 54 54 54 54 54 54 53 53 54
57 56 55 55 57 57 57 57 57 57 57 57 57 56 54 53 52 51 51 51 52 52 52 51 51 52 52 52 53 53 53 53 53 53 53 54 54 55 55 55 57 58
59 59 58 58 59 59 59 59 59 58 58 58 58 58 58 58 57 56 55 55 55 55 54 53 53 53 53 52 51 52 52 53 54 55 56 57 58 59 59 60 62 64
Wind_Direction
246 245 244 243 242 243 246 250 252 250 248 249 251 254 258 263 266 269 270 270 270 271 272 273 277 282 285 287 288 289 288 287 284 281 279 277 275 272 270 268 267 265
250 247 246 246 246 247 249 251 252 251 250 251 254 256 260 264 266 268 269 269 268 269 271 275 280 283 286 287 288 286 285 282 280 278 275 273 271 269 267 265 265 264
254 251 247 246 247 247 248 250 252 253 253 254 257 260 262 264 265 266 266 266 266 269 274 278 281 282 284 285 284 283 282 281 279 276 273 271 268 266 264 263 262 262
254 254 251 248 248 248 249 252 254 256 257 258 260 262 263 263 263 263 263 264 267 272 277 278 279 280 281 281 282 283 283 282 279 276 273 271 268 265 263 262 262 262
252 253 253 252 251 250 250 252 254 257 258 260 260 260 260 260 260 260 261 265 270 274 276 276 276 276 277 279 281 283 284 283 280 277 274 271 268 266 264 262 261 261
251 251 251 252 253 253 252 251 252 254 255 256 256 255 255 257 258 261 265 270 273 274 273 273 273 275 276 278 280 282 283 284 284 281 276 272 269 267 264 262 260 260
247 247 246 248 249 249 249 249 249 249 250 250 250 251 254 257 260 265 269 270 271 270 270 270 272 274 275 276 279 281 283 286 287 284 279 274 270 267 264 262 261 261
234 238 240 242 245 245 244 244 244 243 244 245 247 253 259 263 265 267 268 268 267 267 268 269 271 273 274 276 279 281 284 287 287 284 280 275 270 266 264 263 263 263
227 231 234 236 241 243 242 241 241 241 246 250 254 260 264 266 267 267 266 266 266 266 268 270 271 273 274 276 278 281 284 286 285 283 279 274 270 267 266 265 266 265
227 229 232 231 232 239 242 244 244 246 250 255 258 261 264 265 265 266 265 265 265 266 268 270 271 272 273 275 278 281 283 284 284 281 276 273 271 270 269 268 267 267
227 229 235 234 232 237 244 248 249 251 254 256 257 258 260 262 263 263 263 263 265 266 268 269 270 271 272 275 278 279 280 281 281 277 272 271 272 272 272 270 268 268
229 231 237 240 238 240 246 250 252 254 256 258 258 258 259 259 260 260 261 262 264 266 267 268 269 270 272 274 276 276 277 278 277 274 270 270 272 274 273 271 268 267
229 232 237 241 242 240 243 248 251 254 257 259 261 261 260 259 257 257 259 260 262 263 265 266 266 268 270 271 273 275 276 277 277 275 274 274 275 275 272 269 267 267
229 231 235 239 241 241 243 247 250 252 255 258 261 263 261 259 258 257 258 259 260 261 262 265 267 268 269 271 273 276 277 277 278 278 278 278 277 275 273 270 267 267
229 232 236 239 242 244 246 248 249 250 253 257 260 261 260 261 261 260 259 260 261 263 265 268 269 269 270 272 274 275 276 277 278 279 279 278 277 276 275 273 270 269
229 233 238 241 243 245 247 248 249 250 251 253 255 256 258 261 260 257 257 258 261 264 268 269 269 269 271 273 273 273 275 276 278 278 278 277 276 276 276 276 274 273
228 232 237 242 244 245 246 247 248 248 248 248 249 250 252 255 255 254 255 257 260 264 267 267 267 268 270 271 272 274 275 276 277 278 278 277 277 277 277 277 277 279
227 230 236 242 245 245 244 245 246 246 247 248 249 248 249 250 252 253 255 258 261 264 266 266 267 270 271 273 274 276 276 276 276 276 275 274 275 276 276 277 279 282
229 231 235 239 243 244 244 246 247 248 248 249 250 249 249 250 252 253 255 257 259 262 265 268 270 272 274 275 277 276 276 276 275 273 272 273 274 276 276 278 281 282
230 232 234 236 240 243 244 246 248 249 250 251 252 251 252 252 253 255 257 258 260 262 265 268 270 272 273 275 275 275 276 276 275 274 273 274 276 277 278 280 282 283
226 230 232 234 238 241 244 246 247 248 250 253 254 254 254 255 256 257 260 261 262 263 264 266 268 270 271 272 273 274 275 275 275 276 277 278 279 280 281 283 285 286
224 227 229 232 235 238 241 245 247 248 250 252 254 255 256 257 258 259 260 262 264 265 266 268 269 270 271 271 272 273 274 275 276 278 280 281 282 283 284 286 286 284
227 228 230 233 235 238 240 244 247 249 250 251 253 254 256 257 258 259 261 263 265 266 267 268 268 269 270 271 273 274 276 277 279 280 281 281 282 282 283 285 284 282
231 231 233 235 238 239 241 244 247 250 251 251 252 253 254 255 257 260 262 264 265 267 268 269 269 270 272 273 275 276 278 278 279 279 279 279 278 278 279 279 278 277
233 234 235 238 240 242 243 245 248 250 251 252 253 254 254 255 257 260 262 263 264 264 265 268 270 271 272 273 273 273 273 272 272 272 271 270 270 270 271 272 272 273
234 236 238 240 243 244 245 245 247 248 249 251 253 254 255 255 256 258 260 260 260 260 259 260 262 263 264 265 265 266 265 265 265 265 265 265 266 267 268 269 270 271
Height
10683 10683 10683 10686 10687 10688 10689 10690 10691 10691 10691 10690 10689 10689 10689 10689 10690 10691 10692 10693 10694 10693 10693 10692 10691 10690 10689 10688 10687 10687 10687 10686 10685 10684 10683 10682 10681 10681 10680 10679 10679 10679
10676 10676 10676 10678 10680 10682 10683 10683 10684 10684 10685 10685 10685 10685 10685 10685 10686 10686 10687 10688 10688 10688 10688 10687 10686 10685 10684 10683 10683 10682 10682 10681 10680 10679 10679 10678 10677 10677 10676 10675 10675 10674
10669 10669 10670 10671 10673 10674 10675 10676 10677 10678 10679 10680 10681 10680 10680 10680 10681 10682 10682 10683 10683 10683 10682 10681 10680 10680 10680 10679 10679 10678 10677 10676 10675 10675 10674 10674 10673 10673 10672 10671 10670 10670
10662 10662 10663 10664 10665 10667 10668 10670 10670 10671 10673 10674 10675 10674 10674 10675 10675 10676 10677 10678 10677 10677 10676 10675 10675 10675 10675 10675 10675 10674 10673 10672 10671 10671 10670 10669 10669 10669 10668 10668 10667 10666
10655 10656 10656 10657 10658 10659 10661 10662 10663 10664 10666 10667 10668 10668 10668 10669 10669 10670 10671 10672 10672 10671 10671 10670 10670 10671 10671 10671 10671 10670 10669 10668 10668 10667 10666 10665 10665 10665 10665 10664 10664 10663
10647 10648 10649 10649 10650 10651 10653 10654 10656 10657 10659 10661 10661 10661 10662 10662 10663 10664 10665 10666 10666 10666 10666 10666 10666 10666 10667 10667 10667 10667 10666 10665 10664 10663 10662 10661 10661 10661 10660 10660 10660 10659
10638 10641 10643 10642 10642 10644 10645 10646 10648 10650 10652 10654 10655 10655 10655 10656 10657 10658 10659 10660 10661 10661 10661 10661 10661 10662 10662 10663 10663 10663 10662 10661 10660 10659 10658 10657 10657 10656 10656 10656 10656 10656
10631 10634 10635 10634 10634 10636 10638 10640 10642 10644 10646 10647 10648 10648 10649 10650 10651 10652 10654 10654 10655 10656 10656 10657 10657 10658 10658 10658 10659 10659 10658 10657 10657 10655 10654 10653 10652 10652 10652 10652 10652 10652
10624 10626 10625 10623 10625 10629 10632 10635 10637 10639 10640 10641 10642 10642 10643 10645 10646 10647 10648 10649 10650 10651 10651 10652 10653 10653 10653 10654 10654 10654 10654 10653 10653 10652 10650 10649 10648 10648 10648 10647 10647 10647
10620 10621 10619 10617 10620 10624 10627 10630 10633 10635 10636 10636 10637 10638 10639 10640 10641 10642 10643 10644 10645 10646 10646 10647 10647 10648 10648 10648 10648 10649 10649 10649 10648 10648 10647 10646 10645 10644 10644 10643 10643 10642
10617 10618 10616 10615 10618 10622 10625 10627 10629 10630 10631 10631 10632 10633 10634 10635 10636 10637 10638 10639 10639 10640 10640 10641 10642 10643 10643 10643 10643 10644 10645 10645 10644 10644 10643 10642 10642 10641 10640 10640 10639 10638
10615 10616 10613 10614 10618 10621 10623 10624 10625 10626 10627 10627 10627 10628 10630 10631 10631 10632 10632 10633 10634 10635 10635 10636 10637 10637 10638 10638 10639 10640 10640 10641 10640 10640 10640 10639 10638 10637 10636 10636 10635 10634
10613 10614 10612 10613 10616 10618 10619 10620 10621 10622 10622 10622 10623 10623 10624 10625 10626 10626 10627 10628 10629 10630 10630 10631 10632 10632 10633 10633 10634 10635 10636 10636 10636 10636 10635 10635 10634 10633 10632 10632 10631 10630
10610 10611 10611 10611 10613 10614 10615 10616 10616 10617 10618 10618 10618 10618 10619 10620 10620 10622 10623 10623 10624 10625 10625 10626 10627 10627 10628 10628 10629 10630 10631 10631 10631 10631 10631 10630 10630 10629 10628 10627 10626 10626
10607 10608 10608 10608 10609 10610 10611 10611 10612 10613 10613 10613 10613 10613 10614 10615 10616 10617 10618 10618 10619 10620 10621 10622 10622 10622 10623 10624 10625 10626 10626 10626 10626 10626 10626 10626 10625 10625 10624 10623 10622 10621
10604 10605 10605 10605 10605 10605 10606 10607 10607 10608 10608 10608 10608 10608 10610 10611 10611 10612 10613 10613 10614 10614 10616 10617 10617 10617 10618 10619 10620 10621 10621 10621 10621 10621 10621 10621 10620 10620 10619 10618 10617 10616
10601 10602 10601 10600 10599 10599 10600 10601 10602 10602 10602 10602 10603 10604 10605 10605 10606 10607 10608 10608 10608 10609 10610 10611 10611 10611 10613 10614 10615 10615 10616 10616 10616 10616 10616 10615 10615 10614 10613 10612 10611 10610
10596 10597 10597 10596 10594 10593 10594 10595 10596 10597 10597 10597 10597 10598 10599 10600 10601 10602 10602 10603 10603 10603 10604 10604 10605 10606 10607 10608 10609 10609 10609 10610 10610 10610 10610 10609 10608 10607 10606 10605 10604 10604
10589 10590 10591 10591 10589 10588 10588 10589 10590 10592 10592 10591 10591 10592 10593 10594 10595 10596 10597 10598 10598 10598 10597 10598 10599 10600 10600 10601 10602 10602 10603 10603 10604 10604 10603 10603 10602 10600 10600 10599 10599 10599
10582 10583 10584 10585 10584 10583 10583 10583 10585 10586 10586 10585 10586 10586 10587 10589 10590 10590 10591 10592 10593 10593 10593 10593 10594 10594 10595 10595 10596 10596 10597 10597 10597 10597 10597 10596 10595 10594 10593 10593 10593 10591
10575 10576 10577 10577 10577 10577 10577 10578 10579 10579 10579 10580 10580 10580 10582 10583 10584 10585 10586 10587 10587 10588 10588 10588 10589 10589 10590 10590 10590 10590 10591 10590 10589 10589 10589 10588 10587 10586 10585 10585 10585 10584
10568 10569 10570 10571 10571 10571 10572 10572 10572 10573 10574 10575 10574 10574 10577 10578 10579 10580 10581 10581 10581 10581 10582 10583 10583 10584 10584 10584 10584 10584 10584 10583 10582 10581 10580 10579 10578 10577 10576 10577 10577 10576
10563 10563 10564 10565 10565 10566 10567 10567 10567 10568 10570 10570 10568 10570 10573 10574 10574 10575 10576 10576 10575 10575 10576 10578 10578 10578 10578 10577 10577 10577 10576 10576 10575 10574 10573 10572 10570 10569 10569 10570 10570 10569
10558 10558 10559 10559 10559 10560 10562 10563 10563 10564 10564 10564 10564 10566 10569 10570 10570 10571 10571 10571 10570 10570 10570 10571 10571 10571 10571 10571 10571 10570 10569 10568 10568 10567 10566 10565 10564 10563 10563 10564 10563 10562
10552 10553 10554 10554 10553 10554 10556 10558 10558 10558 10558 10559 10560 10562 10563 10564 10564 10565 10565 10565 10565 10565 10565 10565 10565 10565 10564 10564 10564 10563 10562 10562 10561 10560 10560 10559 10558 10558 10558 10559 10557 10556
10547 10547 10548 10548 10547 10549 10551 10551 10552 10552 10553 10554 10555 10556 10556 10557 10558 10559 10559 10559 10559 10559 10560 10560 10560 10560 10559 10559 10558 10557 10557 10557 10556 10555 10555 10554 10553 10552 10553 10553 10551 10548